Weather Roundup
Issued by NWS

Home | Current Version | Previous Version | Text Only | Print | Product List | Glossary On
Versions: 1 2 3 4 5 6 7 8 9 10 11 12 13 14 15 16 17 18 19 20 21 22 23 24 25 26 27 28 29 30 31 32 33 34 35 36 37 38 39 40 41 42 43 44 45 46 47 48 49 50
000
NZUS93 KARX 040710
HRRWXR

CURRENT HOURLY OBSERVATIONS ACROSS
MUCH OF THE UPPER MISSISSIPPI VALLEY
NATIONAL WEATHER SERVICE LA CROSSE WI
200 AM CDT TUE AUG 04 2015


...SOUTHEAST MINNESOTA...


CITY           SKY/WX    TMP DP  RH WIND       PRES   REMARKS
ROCHESTER      CLEAR     56  52  86 W9        29.97S
ROCHESTER/MAYO FAIR      62  52  69 W8        29.95S
WINONA         CLEAR     59  55  88 CALM      29.93R
AUSTIN         CLEAR     59  54  82 NW3       29.96S
ALBERT LEA     CLEAR     57  54  88 CALM      29.97S
DODGE CENTER   PTCLDY    55  52  88 W5        29.97S
PRESTON        CLEAR     57  51  79 W8        29.96S
OWATONNA       CLEAR     55  52  88 CALM      29.97S
FARIBAULT      CLEAR     59  54  82 NW3       29.97R
$$

...ELSEWHERE IN MINNESOTA...


CITY           SKY/WX    TMP DP  RH WIND       PRES   REMARKS
MINNEAPOLIS    CLEAR     65  53  65 NW3       29.95R
INTNL FALLS    CLEAR     44  43  96 SW3       29.91R
DULUTH         CLEAR     54  50  86 W8        29.91S
RED WING       CLEAR     57  55  94 CALM      29.94R
REDWOOD FALLS  CLEAR     59  53  80 CALM      29.97F
MANKATO        CLEAR     59  52  77 NW5       29.97S
WORTHINGTON    CLEAR     55  52  88 CALM      30.00S
FAIRMONT       CLEAR     57  48  72 CALM      29.97F
$$

...SOUTHWEST WISCONSIN...


CITY           SKY/WX    TMP DP  RH WIND       PRES   REMARKS
LA CROSSE      CLEAR     62  56  80 S6        29.91S
PRAIRIE DU CHI CLEAR     56  53  88 CALM      29.93F
BOSCOBEL       CLEAR     55  53  93 CALM      29.93F
LONE ROCK      CLEAR     55  52  89 CALM      29.93F
PLATTEVILLE    CLEAR     62  55  77 CALM      29.94F
FORT MC COY    CLEAR     51  49  93 CALM      29.92S
CAMP DOUGLAS   CLEAR     51  51 100 CALM      29.90F
VIROQUA        FAIR      58  53  84 SW5       29.94S
WIS DELLS      CLEAR     56  51  85 S3        29.92S
$$

...ELSEWHERE IN WISCONSIN...


CITY           SKY/WX    TMP DP  RH WIND       PRES   REMARKS
MILWAUKEE      CLEAR     68  51  54 W3        29.90S
MADISON        CLEAR     60  52  74 CALM      29.91F
GREEN BAY      MOCLDY    59  56  89 W5        29.88S
EAU CLAIRE     CLEAR     61  53  75 NW5       29.92R
BLACK RVR FLS  FAIR      53  53  99 CALM      29.91S
MEDFORD        MOCLDY    59  55  85 W5        29.92R
WAUSAU         CLOUDY    64  55  72 W8        29.88F
WIS RAPIDS     CLOUDY    61  51  70 W5        29.90F
MARSHFIELD     MOCLDY    60  53  77 NW6       29.91S
RICE LAKE      CLEAR     56  52  86 CALM      29.95S
$$

...NORTHEAST IOWA...


CITY           SKY/WX    TMP DP  RH WIND       PRES   REMARKS
DECORAH        CLEAR     57  54  88 CALM      29.94S
MASON CITY     CLEAR     58  55  90 W3        29.99S
CHARLES CITY   CLEAR     57  55  94 W5        29.97S
OELWEIN        CLEAR     55  55 100 CALM      29.97S
$$

...ELSEWHERE IN IOWA...


CITY           SKY/WX    TMP DP  RH WIND       PRES   REMARKS
DES MOINES     PTCLDY    69  59  70 CALM      29.97S
IOWA CITY      CLEAR     62  57  83 SW3       29.97S
FORT DODGE     CLEAR     59  55  88 CALM      29.99S
$$

...NORTHERN ILLINOIS...


CITY           SKY/WX    TMP DP  RH WIND       PRES   REMARKS
CHICAGO-OHARE  CLEAR     65  56  72 W6        29.91S
CHICAGO-MIDWAY CLEAR     69  55  60 W6        29.91S
MOLINE         CLEAR     61  56  83 S3        29.95S
ROCKFORD       CLEAR     61  55  81 CALM      29.94F
PEORIA         CLEAR     67  58  72 CALM      29.95F
$$

NOTE: "FAIR" INDICATES FEW OR NO CLOUDS BELOW 12,000 FEET WITH NO
SIGNIFICANT WEATHER AND/OR OBSTRUCTIONS TO VISIBILITY. WIND
SPEEDS ARE IN MILES-PER-HOUR.



USA.gov is the U.S. government's official web portal to all federal, state and local government web resources and services.